loading
|

THOR ABLESTAR DEB, 147

Orbit data source: Space-Track

THOR ABLESTAR DEB, 147 is space debris in LEO originally from a launch on Thu, 29 Jun 1961 UTC launched from the Air Force Eastern Test Range (AFETR). Debris objects in space refer to the collection of defunct objects orbiting the Earth. Examples of debris include non-operational satellites, rocket bodies, and fragments generated from explosions, collisions, or faulty payload assembly.

Loading next visibility...
Loading greatness...
THOR ABLESTAR DEB details
Identifier
147, 1961-015AH
Orbit
LEO
Last TLE update9 hours ago
Origin
Flag of USUSAF SSD (US)
ManufacturerUnknown
Mission statusUnknown
MissionUnknown
Bus & MotorUnknown
MassUnknown
Launch date (UTC)
1961-06-29 (63 years ago)
Launch vehicleUnknown
Launch site
Air Force Eastern Test Range (AFETR)
Object type
Payload
Rocket body
Debris
Radar Cross SectionMedium (>0.1 m² and <1 m²)

Expand to show TLE details & history

TLE from 9 hours ago
0 THOR ABLESTAR DEB
1 00147U 61015AH  24258.87704457  .00003799  00000-0  17275-2 0  9990
2 00147  66.6172 223.1238 0053208 174.4412 185.7283 14.22053722243331
Epoch: 2024-09-14T21:02Z
Definitive object data (Epoch: 2024-09-14T21:02:56.65Z)
Latitude-0.00012°
Longitude-86.94075°
Altitude858.615 km
Speed7.404 km/s
True Right ascension14h 52m 29s
True Declination0° 00' 00"
Sunlit
Object was in daylight at TLE epoch
Predictive object data (real-time)
Latitude38.91088°
Longitude71.76517°
Altitude792.459 km
Speed7.477 km/s
Apparent Right ascension05h 26m 13s
Apparent Declination6° 24' 14"
Sunlit
Object is in full shadow
Predictive observer data (real-time)
Local Sidereal Time22:46:14
Azimuth78.662° E
Elevation-3.482°
Doppler factor1
Orbital elements
Apogee855.089 km
Perigee778.523 km
Semi-major axis7,194.943 km
Eccentricity0.0053208
Inclination66.6172°
RAAN223.1238°
Arg. of periapsis174.4412°
True anomaly185.66784°
Mean anomaly185.7283°
Eccentric anomaly185.69803°
Mean motion3.55633 °/min
BSTAR0.0017275
Period101.23 mins
No data available

THOR ABLESTAR DEB Visibility forecast

Observer location: 39.9160978°, -105.1181434

THOR ABLESTAR DEB is not visible in the next 10 days
Span
Click to sort rows by Start time (UTC) header in descending order
Start Az.
Max El. time (UTC)
Max El. Az.
Max El.
End time (UTC)
End Az.